Regional Weather Roundup
Issued by NWS Kansas City/Pleasant Hill, MO

Home | Current Version | Previous Version | Text Only | Print | Product List | Glossary On
Versions: 1 2 3 4 5 6 7 8 9 10 11 12 13 14 15 16 17 18 19 20 21 22 23 24 25 26 27 28 29 30 31 32 33 34 35 36 37 38 39 40 41 42 43 44 45 46 47 48 49 50
000
ASUS43 KEAX 311304
RWREAX

WEATHER ROUNDUP FOR EASTERN KANSAS AND NORTHWEST MISSOURI
NATIONAL WEATHER SERVICE KANSAS CITY/PLEASANT HILL MO
700 AM CST SAT JAN 31 2015

KSZ040-057-103>105-MOZ028-029-037-043-311400-
...KANSAS CITY METROPOLITAN AREA...

CITY           SKY/WX    TMP DP  RH WIND       PRES   REMARKS
K.C. INTL      LGT RAIN  34  33  96 SE5       30.25S WCI  30
K.C. DOWNTOWN  LGT RAIN  36  33  89 E5        30.26S WCI  32
LEES SUMMIT    LGT RAIN  34  31  88 CALM      30.26S
OLATHE - IXD   MIX PCPN  34  31  88 E6        30.24F WCI  29
OLATHE - OJC   LGT RAIN  34  32  92 E6        30.23F FOG     WCI  29
LAWRENCE       LGT RAIN  34  32  92 E6        30.24F WCI  29

$$

MOZ001>008-011>017-020>025-030>033-038>040-044>046-053-054-311400-
...NORTHERN AND CENTRAL MISSOURI...

CITY           SKY/WX    TMP DP  RH WIND       PRES   REMARKS
ST. JOSEPH     LGT RAIN  34  33  96 S3        30.26S FOG
MOSBY          LGT RAIN  32  32 100 CALM      30.27S
WARRENSBURG    MIX PCPN  32  30  93 CALM      30.28S
WHITEMAN AFB   LGT RAIN  33  29  83 NE1       30.28R
CLINTON        CLOUDY    36  32  87 MISG      30.28S
SEDALIA        LGT RAIN  35  26  69 CALM      30.29S
WARSAW         NOT AVBL
MARSHALL       CLOUDY    37  27  65 CALM      30.30R
CHILLICOTHE      N/A     33  29  85 CALM      30.28S
MOBERLY        CLOUDY    34  19  55 CALM      30.28
KIRKSVILLE     CLOUDY    30  21  69 SW5       30.27S WCI  25

$$

MOZ041-047>049-056>058-063>065-088>090-097-311400-
...EASTERN AND SOUTHERN MISSOURI...

CITY           SKY/WX    TMP DP  RH WIND       PRES   REMARKS
ST. LOUIS INTL MOCLDY    32  20  61 CALM      30.34R
SPIRIT OF STL  CLOUDY    27  24  89 CALM      30.33R
COLUMBIA       CLOUDY    33  22  63 S5        30.29S WCI  29
JEFFERSON CITY CLOUDY    31  24  75 SE6       30.31F WCI  25
HANNIBAL       CLOUDY    32  19  59 SW8       30.30R WCI  25
ROLLA          CLOUDY    34  23  64 S10       30.28S WCI  26
LEBANON        CLOUDY    37  21  52 S5        30.29R WCI  34
OSAGE BEACH    CLOUDY    36  19  51 CALM      30.29S
SPRINGFIELD    LGT RAIN  37  28  70 VRB6      30.25F WCI  32
BRANSON        CLOUDY    37  25  60 E13       30.25F WCI  29
NEVADA         LGT RAIN  36  34  93 W6        30.28R WCI  31
JOPLIN         CLOUDY    40  27  59 E8        30.23S WCI  34
WEST PLAINS    CLOUDY    34  23  64 SE6       30.32S WCI  29

$$

IAZ060-094-KSZ022-034>040-054-083-096-NEZ052-066-093-311400-
...KANSAS...SOUTHEAST NEBRASKA AND IOWA...

CITY           SKY/WX    TMP DP  RH WIND       PRES   REMARKS
TOPEKA         LGT RAIN  35  34  96 NE5       30.23F FOG     WCI  31
MANHATTAN      CLOUDY    37  36  96 CALM      30.19R
EMPORIA        CLOUDY    36  35  96 SE7       30.18S WCI  30
CHANUTE        CLOUDY    39  35  86 S6        30.22S WCI  35
WICHITA        FLURRIES  36  29  75 S7        30.17R WCI  30
OMAHA          CLOUDY    36  31  82 SE10      30.17F WCI  28
LINCOLN        LGT RAIN  35  33  92 S12       30.16F WCI  27
FALLS CITY     RAIN      35  33  92 S7        30.22F FOG     WCI  29
LAMONI         CLOUDY    30  23  75 S9        30.22S WCI  22
DES MOINES     CLOUDY    36  28  73 SW10      30.20S WCI  28

$$




USA.gov is the U.S. government's official web portal to all federal, state and local government web resources and services.